Whitecourt,

8:17 AM MDT on August 16, 2017 (GMT -0600)
Whitecourt

Weather History for CYZU - March, 2013

Change the Weather History Date:

Friday, March 1, 2013

  Actual Average Record
Temperature  
Mean Temperature 34 °F -  
Max Temperature 43 °F 23 °F 50 °F (2005)
Min Temperature 25 °F 7 °F -28 °F (2014)
Degree Days  
Heating Degree Days 31    
Moisture  
Dew Point 23 °F    
Average Humidity 57    
Maximum Humidity 87    
Minimum Humidity 23    
Precipitation  
Precipitation 0.00 in - - ()
Sea Level Pressure  
Sea Level Pressure 30.04 in    
Wind  
Wind Speed 5 mph ()    
Max Wind Speed 15 mph    
Max Gust Speed -    
Visibility 15.0 miles    
Events      
Averages and records for this station are not official NWS values.
T = Trace of Precipitation, MM = Missing Value Source: Averaged Metar Reports

Daily Weather History Graph

Daily Weather History Graph

Search for Another Location

Airport or City:

Trip Planner

Search our weather history database for the weather conditions in past years. The results will help you decide how hot, cold, wet, or windy it might be!

Date:

Astronomy

Mar. 01, 2013 Rise Set
Actual Time 7:30 AM MST 6:20 PM MST
Civil Twilight 6:55 AM MST 6:56 PM MST
Nautical Twilight 6:14 AM MST 7:37 PM MST
Astronomical Twilight 5:32 AM MST 8:19 PM MST
Moon 11:50 PM MST (3/1) 8:35 AM MST (3/1)
Length of Visible Light 12h 01m
Length of Day
10h 49m
Waning Gibbous, 83% of the Moon is Illuminated
Mar 1
Waning Gibbous
Mar 4
Last Quarter
Mar 11
New
Mar 19
First Quarter
Mar 27
Full

Hourly Weather History & Observations

Time (MST) Temp. Windchill Dew Point Humidity Pressure Visibility Wind Dir Wind Speed Gust Speed Precip Events Conditions
6:00 AM 28.4 °F - 19.4 °F 69% 29.99 in 15.0 mi Calm Calm - N/A   Partly Cloudy
7:00 AM 26.6 °F 21.2 °F 19.4 °F 74% 30.02 in 15.0 mi SSW 4.6 mph - N/A   Mostly Cloudy
8:00 AM 28.4 °F - 21.2 °F 74% 30.02 in 15.0 mi Calm Calm - N/A   Overcast
9:00 AM 30.2 °F 24.3 °F 21.2 °F 69% 30.03 in 15.0 mi West 5.8 mph - N/A   Overcast
10:00 AM 33.8 °F 27.7 °F 23.0 °F 65% 30.03 in 15.0 mi West 6.9 mph - N/A   Mostly Cloudy
11:00 AM 41 °F - 24 °F 38% 30.03 in 15 mi WNW 8.1 mph - -   Unknown
11:00 AM 41.0 °F 35.8 °F 24.8 °F 53% 30.03 in 15.0 mi WNW 8.1 mph - N/A   Mostly Cloudy
12:00 PM 41.0 °F 33.5 °F 21.2 °F 45% 30.03 in 15.0 mi West 13.8 mph - N/A   Overcast
1:00 PM 42.8 °F 35.4 °F 19.4 °F 39% 30.03 in 15.0 mi WNW 15.0 mph - N/A   Overcast
2:00 PM 42.8 °F 36.6 °F 17.6 °F 36% 30.04 in 15.0 mi WNW 11.5 mph - N/A   Overcast
3:00 PM 42.8 °F 37.0 °F 14.0 °F 31% 30.04 in 15.0 mi WNW 10.4 mph - N/A   Overcast
4:00 PM 42.8 °F 39.3 °F 15.8 °F 34% 30.04 in 15.0 mi WNW 5.8 mph - N/A   Overcast
5:00 PM 42 °F - 17 °F 23% 30.05 in 15 mi WNW 4.6 mph - -   Overcast
5:00 PM 41.0 °F 38.0 °F 17.6 °F 39% 30.05 in 15.0 mi WNW 4.6 mph - N/A   Overcast
6:00 PM 39.2 °F 35.9 °F 28.4 °F 65% 30.05 in 15.0 mi SSW 4.6 mph - N/A   Overcast
7:00 PM 37.4 °F 33.8 °F 30.2 °F 75% 30.05 in 15.0 mi South 4.6 mph - N/A   Overcast
8:00 PM 37.4 °F 33.8 °F 32.0 °F 81% 30.07 in 15.0 mi SSW 4.6 mph - N/A   Mostly Cloudy
9:00 PM 35.6 °F - 32.0 °F 87% 30.08 in 15.0 mi SSW 2.3 mph - N/A   Mostly Cloudy
10:00 PM 35.6 °F 30.7 °F 32.0 °F 87% 30.07 in 15.0 mi SSW 5.8 mph - N/A   Overcast